Regional Weather Roundup
Issued by NWS

Home | Current Version | Previous Version | Text Only | Print | Product List | Glossary Off
Versions: 1 2 3 4 5 6 7 8 9 10 11 12 13 14 15 16 17 18 19 20 21 22 23 24 25 26 27 28 29 30 31 32 33 34 35 36 37 38 39 40 41 42 43 44 45 46 47 48 49 50

000
ASUS45 KABQ 021001
RWRNM
NEW MEXICO REGIONAL WEATHER ROUNDUP
NATIONAL WEATHER SERVICE ALBUQUERQUE NM
400 AM MDT SUN AUG 02 2015

NOTE: "FAIR" MEANS FEW OR NO CLOUDS BELOW 12,000 FEET AGL WITH NO
       SIGNIFICANT WEATHER OR OBSTRUCTIONS TO VISION.

      THIS PRODUCT IS RELEASED AS TWO VERSIONS.  ONE VERSION NEAR
      THE TOP OF THE HOUR CONTAINING PRELIMINARY DATA FROM ALBUQUERQUE
      AND OTHER STATIONS.  A FINAL VERSION WITH ADDITIONAL DATA IS
      ISSUED ABOUT 10 MINUTES AFTER THE HOUR.

NMZ501-503-504-510>518-021100-
NORTHWEST PLATEAU/NORTHCENTRAL MOUNTAINS

CITY           SKY/WX    TMP DP  RH WIND       PRES   REMARKS
FARMINGTON     CLEAR     64  57  78 E6        30.15F
SANTA FE       CLOUDY    62  59  90 CALM      30.22F
TAOS           CLOUDY    55  46  71 N5        30.29S
ANGEL FIRE     CLOUDY    47  47  97 CALM      30.37S FOG

$$
NMZ402-403-502-505>509-021100-
WESTCENTRAL MOUNTAINS/SOUTHWEST MOUNTAINS

CITY           SKY/WX    TMP DP  RH WIND       PRES   REMARKS
GALLUP         CLOUDY    60  57  89 SW5       30.24R
GRANTS         CLOUDY    58  57  96 S3        30.26S
SILVER CITY      N/A     66  55  68 CALM      30.17F

$$
NMZ407-409-411-412-021100-
SOUTHERN DESERTS

CITY           SKY/WX    TMP DP  RH WIND       PRES   REMARKS
DEMING         CLEAR     74  57  55 CALM      30.08S
HOLLOMAN AFB   PTCLDY    74  56  52 NE9       30.06F
ALAMOGORDO     MOCLDY    73  55  53 NE9       30.09F
T OR C         MOCLDY    71  60  68 CALM      30.13S

$$
NMZ519>523-021100-
CENTRAL VALLEYS/CENTRAL HIGHLANDS

CITY           SKY/WX    TMP DP  RH WIND       PRES   REMARKS
ALBUQUERQUE    MOCLDY    66  61  84 SW6       30.17S
DOUBLE EAGLE   CLOUDY    62  60  94 SW6       30.20F
MORIARTY ARPT    N/A     59  56  88 SW3       30.23F
CLINES CORNERS PTCLDY    59  56  89 NW7       30.25F
BELEN          FAIR      64  59  85 SE6       30.15F
SOCORRO        NOT AVBL

$$
NMZ524>526-539-540-021100-
SOUTHCENTRAL MOUNTAINS

CITY           SKY/WX    TMP DP  RH WIND       PRES   REMARKS
RUIDOSO          N/A    N/A N/A N/A MISG        N/A

$$
NMZ527>531-021100-
NORTHEAST HIGHLANDS/NORTHEAST PLAINS

CITY           SKY/WX    TMP DP  RH WIND       PRES   REMARKS
RATON          PTCLDY    58  55  90 CALM      30.18F
CLAYTON        CLOUDY    66  61  84 NW6       30.07F

$$
NMZ532>537-021100-
EASTCENTRAL PLAINS

CITY           SKY/WX    TMP DP  RH WIND       PRES   REMARKS
TUCUMCARI      PTCLDY    68  63  84 W5        30.04F
CANNON AFB     PTCLDY    69  62  79 NW3       30.08F
CLOVIS AIRPORT PTCLDY    66  61  82 S5        30.08F

$$
NMZ028-029-538-021100-
SOUTHEAST PLAINS

CITY           SKY/WX    TMP DP  RH WIND       PRES   REMARKS
ROSWELL        PTCLDY    74  61  63 SW7       30.03F
ARTESIA        PTCLDY    72  63  73 SE3       30.03F
CARLSBAD       CLEAR     72  67  84 NW5       30.01F
HOBBS            N/A    N/A N/A N/A MISG        N/A


$$


USA.gov is the U.S. government's official web portal to all federal, state and local government web resources and services.